Location: ??????????
(48.5701°N, 37.7703°E)
Time: 19:23:09
(UTC+00:00)

IDEFIX/ARIANE 42P - Pass Details

Date: 14 July 2020
Orbit: 784 x 804 km, 98.4° (Epoch: 11 August)

Event Time Altitude Azimuth Distance (km) Brightness Sun altitude
Rises 00:11:31 0° 20° (NNE) 3,294 7.4 -11.6°
Reaches altitude 10° 00:14:00 10° 27° (NNE) 2,358 6.5 -11.3°
Maximum altitude 00:18:54 40° 97° (E) 1,145 3.7 -10.8°
Drops below altitude 10° 00:23:44 10° 167° (SSE) 2,337 4.7 -10.3°
Enters shadow 00:25:46 - 174° (S) 3,101 5.2 -10.1°
